Погода в Короцко

Россия / Новгородская область     57°56′13″N   33°14′53″E
темп.,
°C
ветер,
м/с
пор.,
м/с
влажн.,
%
обл.,
%
осадки,
мм/ч
давл.,
гПа
погр.,
м
27 октября, ср
ср2700:00+2юз41289100 0.0 1013395
03:00+2юз41290100 0.0 1011443
06:00+3юз41293100 0.0 1009498
09:00+4зюз41296100 1.9 1008613
12:00+5зюз41194100 0.1 1009859
15:00+6з51188100 0.2 1010942
18:00+6зюз51184100 0.1 1011755
21:00+6зюз41184100 0.1 1010578
28 октября, чт
чт2800:00+5ююз41090100 0.0 1008459
03:00+5ю41395100 4.1 1004780
06:00+8з41398100 2.5 1003840
09:00+8зсз51191100 3.1 1006881
12:00+7ссз4895100 0.4 1010881
15:00+6с4787100 0.4 1016919
18:00+5сз2591100 0.0 1020295
21:00+5с1195100 0.0 102324
29 октября, пт
пт2900:00+4ююв1196100 0.0 102425
03:00+4ю2594100 0.0 1025163
06:00+5ююз31082100 0.0 1025446
09:00+5ююз41380100 0.0 1024510
12:00+7юз51385100 0.0 1024656
15:00+9юз5138834 0.0 1023604
18:00+7юз5139584 0.0 1024456
21:00+8юз51393100 0.0 1024524
30 октября, сб
сб3000:00+8юз41494100 0.0 1024481
03:00+7юз4149391 0.0 1023470
06:00+6юз413936 0.0 1024420
09:00+6ююз413845 0.0 1024384
12:00+9юз4147080 0.0 1023492
15:00+10ююз4136868 0.0 1022569
18:00+8ююз4147614 0.0 1022442
21:00+7ююз4157973 0.0 1022524
31 октября, вс
вс3100:00+6ююз515859 0.0 1021528
03:00+6ююз4148918 0.0 1020484
06:00+5ююз413925 0.0 1020406
09:00+6юз41391100 0.0 1020429
12:00+8юз41182100 0.0 1020406
15:00+9ююз3107949 0.0 1019447
18:00+6ю3109079 0.0 1019289
21:00+6ю4129288 0.0 1018363